User: anonymous
Location: Langangen
(59.1000°N, 9.8000°E)
Time: 16:01:38
(UTC+02:00)
Language:

Iridium 60 - Orbit

View from above orbital plane
View from above orbital plane
View from above satellite
View from above satellite

Ground track
Ground track

The orbit data is extracted from the following two-line orbital elements,

1 25276U 98019E   14244.44583721  .00000263  00000-0  86727-4 0  9421
2 25276 086.4008 353.2700 0002310 111.5436 248.6006 14.34220396859908
Epoch (UTC): 01 September 2014 10:42:00
Eccentricity: 0.0002310
inclination: 86.4008°
perigee height: 776 km
apogee height: 779 km
right ascension of ascending node: 353.2700°
argument of perigee: 111.5436°
revolutions per day: 14.34220396
mean anomaly at epoch: 248.6006°
orbit number at epoch: 85990

The dashed part of the orbit path shows where the satellite is in the earth's shadow,  

DLR